Location: Newark
(52.3500°N, 175.9667°E)
Time: 22:46:46
(UTC+00:00)

Altair - Pass Details

Date: 30 April 2021
Orbit: 1501 x 1683 km, 47.2° (Epoch: 06 May)

Event Time Altitude Azimuth Distance (km) Brightness Sun altitude
Rises 18:43:42 0° 270° (W) 4,890 9.5 16.4°
Reaches altitude 10° 18:46:55 10° 268° (W) 3,882 9.1 16.9°
Maximum altitude 18:56:37 63° 190° (S) 1,747 8.1 18.4°
Drops below altitude 10° 19:05:55 10° 112° (ESE) 3,736 11.1 19.8°
Sets 19:08:57 0° 110° (ESE) 4,697 11.4 20.3°
